Angola Tri-State Steuben Coun, IN

12:50 AM EDT on March 23, 2017 (GMT -0400)
Tri-State Steuben County

Weather History for KANQ - January, 2014

Change the Weather History Date:

Wednesday, January 15, 2014

  Actual Average (KFWA) Record (KFWA)
Temperature  
Mean Temperature 20 °F -  
Max Temperature 23 °F 29 °F 64 °F (1932)
Min Temperature 17 °F 13 °F -18 °F (1972)
Degree Days  
Heating Degree Days 45    
Moisture  
Dew Point 14 °F    
Average Humidity 77    
Maximum Humidity 86    
Minimum Humidity 68    
Precipitation  
Precipitation 0.00 in - - ()
Sea Level Pressure  
Sea Level Pressure 29.97 in    
Wind  
Wind Speed 9 mph (WSW)    
Max Wind Speed 14 mph    
Max Gust Speed -    
Visibility 10 miles    
Events      
Averages and records for this station are not official NWS values.
T = Trace of Precipitation, MM = Missing Value Source: NWS Daily Summary

Daily Weather History Graph

Daily Weather History Graph

Search for Another Location

Airport or City:

Trip Planner

Search our weather history database for the weather conditions in past years. The results will help you decide how hot, cold, wet, or windy it might be!

Date:

Astronomy

Jan. 15, 2014 Rise Set
Actual Time 8:04 AM EST 5:35 PM EST
Civil Twilight 7:34 AM EST 6:05 PM EST
Nautical Twilight 6:59 AM EST 6:40 PM EST
Astronomical Twilight 6:26 AM EST 7:13 PM EST
Moon 5:33 PM EST (1/15) 7:19 AM EST (1/15)
Length of Visible Light 10h 31m
Length of Day
9h 30m
Full, 100% of the Moon is Illuminated
Jan 15
Full
Jan 15
Full
Jan 24
Last Quarter
Jan 30
New
Feb 6
First Quarter

Hourly Weather History & Observations

Time (EST) Temp. Windchill Dew Point Humidity Pressure Visibility Wind Dir Wind Speed Gust Speed Precip Events Conditions
11:35 AM 21.2 °F 10.9 °F 17.6 °F 86% - 10.0 mi West 9.2 mph - N/A   Unknown
12:35 PM 21.2 °F 8.9 °F 15.8 °F 80% 29.96 in 10.0 mi West 12.7 mph - N/A   Unknown
12:55 PM 21.2 °F 11.7 °F 15.8 °F 80% 29.95 in 10.0 mi West 8.1 mph - N/A   Overcast
1:15 PM 21.2 °F 10.1 °F 15.8 °F 80% 29.95 in 10.0 mi West 10.4 mph - N/A   Overcast
1:35 PM 21.2 °F 9.5 °F 15.8 °F 80% 29.95 in 10.0 mi West 11.5 mph - N/A   Overcast
1:55 PM 21.2 °F 9.5 °F 15.8 °F 80% 29.95 in 10.0 mi West 11.5 mph - N/A   Overcast
2:15 PM 21.2 °F 9.5 °F 15.8 °F 80% 29.95 in 10.0 mi WSW 11.5 mph - N/A   Overcast
2:35 PM 21.2 °F 8.3 °F 15.8 °F 80% 29.96 in 10.0 mi WSW 13.8 mph - N/A   Overcast
2:55 PM 21.2 °F 9.5 °F 15.8 °F 80% 29.95 in 10.0 mi WSW 11.5 mph - N/A   Overcast
3:15 PM 23.0 °F 14.7 °F 15.8 °F 74% 29.96 in 10.0 mi West 6.9 mph - N/A   Overcast
3:35 PM 21.2 °F 10.9 °F 15.8 °F 80% 29.97 in 10.0 mi WSW 9.2 mph - N/A   Overcast
3:55 PM 21.2 °F 9.5 °F 15.8 °F 80% 29.97 in 10.0 mi WSW 11.5 mph - N/A   Overcast
4:15 PM 21.2 °F 11.7 °F 15.8 °F 80% 29.97 in 10.0 mi WSW 8.1 mph - N/A   Overcast
4:35 PM 21.2 °F 10.9 °F 15.8 °F 80% 29.98 in 10.0 mi WSW 9.2 mph - N/A   Overcast
4:55 PM 21.2 °F 10.1 °F 15.8 °F 80% 29.99 in 10.0 mi West 10.4 mph - N/A   Overcast
5:15 PM 21.2 °F 11.7 °F 15.8 °F 80% 30.00 in 10.0 mi WSW 8.1 mph - N/A   Overcast
5:35 PM 21.2 °F 13.6 °F 15.8 °F 80% 29.99 in 10.0 mi West 5.8 mph - N/A   Overcast
5:55 PM 19.4 °F 12.8 °F 14.0 °F 80% 29.99 in 10.0 mi WSW 4.6 mph - N/A   Scattered Clouds
6:15 PM 19.4 °F 11.5 °F 14.0 °F 80% 29.99 in 10.0 mi WSW 5.8 mph - N/A   Clear
6:35 PM 19.4 °F 12.8 °F 12.2 °F 74% 29.98 in 10.0 mi WSW 4.6 mph - N/A   Clear
6:55 PM 17.6 °F 9.3 °F 12.2 °F 79% 29.98 in 10.0 mi SW 5.8 mph - N/A   Clear
7:15 PM 17.6 °F 8.2 °F 12.2 °F 79% 29.99 in 10.0 mi WSW 6.9 mph - N/A   Mostly Cloudy
7:35 PM 17.6 °F 8.2 °F 12.2 °F 79% 29.99 in 10.0 mi WSW 6.9 mph - N/A   Overcast
7:55 PM 19.4 °F 9.5 °F 12.2 °F 74% 30.00 in 10.0 mi WSW 8.1 mph - N/A   Overcast
8:15 PM 19.4 °F 8.6 °F 10.4 °F 68% 30.00 in 10.0 mi WSW 9.2 mph - N/A   Overcast
8:35 PM 19.4 °F 11.5 °F 12.2 °F 74% 29.99 in 10.0 mi WSW 5.8 mph - N/A   Overcast
8:55 PM 19.4 °F 11.5 °F 12.2 °F 74% 29.99 in 10.0 mi WSW 5.8 mph - N/A   Overcast
9:15 PM 19.4 °F 11.5 °F 12.2 °F 74% 29.99 in 10.0 mi SW 5.8 mph - N/A   Overcast
9:35 PM 19.4 °F 8.6 °F 12.2 °F 74% 29.98 in 10.0 mi SW 9.2 mph - N/A   Overcast
9:55 PM 19.4 °F 7.9 °F 12.2 °F 74% 29.98 in 10.0 mi WSW 10.4 mph - N/A   Overcast
10:15 PM 19.4 °F 9.5 °F 12.2 °F 74% 29.96 in 10.0 mi SW 8.1 mph - N/A   Overcast
10:35 PM 19.4 °F 6.6 °F 10.4 °F 68% 29.95 in 10.0 mi WSW 12.7 mph - N/A   Overcast
10:55 PM 17.6 °F 6.4 °F 10.4 °F 73% 29.96 in 10.0 mi WSW 9.2 mph - N/A   Overcast
11:15 PM 17.6 °F 5.7 °F 10.4 °F 73% 29.95 in 10.0 mi SW 10.4 mph - N/A   Overcast
11:35 PM 17.6 °F 6.4 °F 10.4 °F 73% 29.95 in 10.0 mi WSW 9.2 mph - N/A   Overcast
11:55 PM 17.6 °F 3.7 °F 10.4 °F 73% 29.93 in 10.0 mi SW 13.8 mph - N/A   Overcast